User: anonymous   Login
Location: Bazinghen
(50.8246°N, 1.6616°E)
Time: 12:25:31
(UTC+00:00)
Language:

MetOp-B - Orbit

View from above orbital plane
View from above orbital plane
View from above satellite
View from above satellite

Ground track
Ground track

The orbit data is extracted from the following two-line orbital elements,

1 38771U 12049A   20190.90858130 -.00000011 +00000-0 +14713-4 0  9991
2 38771 098.6902 249.8869 0000597 037.1131 136.9186 14.21499716405079
Epoch (UTC): 08 July 2020 21:48:21
Eccentricity: 0.0000597
inclination: 98.6902°
perigee height: 820 km
apogee height: 821 km
right ascension of ascending node: 249.8869°
argument of perigee: 37.1131°
revolutions per day: 14.21499716
mean anomaly at epoch: 136.9186°
orbit number at epoch: 40507

The dashed part of the orbit path shows where the satellite is in the earth's shadow,  

DLR